Location: Houhaj�rvi
(61.2833°N, 23.0000°E)
Time: 19:04:16
(UTC+00:00)

Meteor 1-19 Rocket - Pass Details

Date: 27 February 2020
Orbit: 813 x 921 km, 81.2° (Epoch: 05 April)

Event Time Altitude Azimuth Distance (km) Brightness Sun altitude
Rises 17:14:32 0° 341° (NNW) 3,538 7.7 -11.4°
Reaches altitude 10° 17:17:02 10° 342° (NNW) 2,579 7.0 -11.7°
Maximum altitude 17:22:56 88° 259° (WSW) 885 4.3 -12.4°
Drops below altitude 10° 17:28:37 10° 165° (SSE) 2,490 6.4 -13.1°
Sets 17:31:00 0° 166° (SSE) 3,406 7.1 -13.3°
